OBJECT H, 63298

Orbit data source: Space-Track

You're viewing an Uncataloged Satellite

Recently launched and/or uncataloged satellites may have evolving metadata. Metadata may include but not limited to: Owner, Maufacturer, Bus, Motor, and Mission.

OBJECT H, 63298 is a Chinese satellite in SSO that was launched on Mon, 17 Mar 2025 UTC via a GUSHENXING 1 launch vehicle from the Jiuquan Satellite Launch Center, China (JSC). Unknown objects in Earth's orbit typically refer to objects detected orbiting the Earth but have not yet been identified or cataloged. These objects could be anything from previously untracked satellites, spent rocket stages, debris from satellite collisions, or even natural meteoroids temporarily captured by Earth's gravity.

Loading next visibility...
Identifier
63298, 2025-055H
Orbit
SSO
Country
Flag of CNCN / PRC
Related business
None
Manufacturer
Unknown
Mission
Operational Commercial Imaging
Bus & Motor
Unknown
Mass
Unknown
Launch date (UTC)
2025-03-17 (7 months ago)
Launch vehicle
GUSHENXING 1
Launch site
Jiuquan Satellite Launch Center, China (JSC)
Object type
Unknown
Shape & HBR
Box + 3 Pan, 0.5 m
Radar Cross Section
3.533 m², Medium (>0.1 m² and < 1m²)

Expand to show TLE details & history
Last TLE update: 16 hours ago

TLE from 16 hours ago
0 OBJECT H
1 63298U 25055H   25296.94377155  .00032379  00000-0  15169-2 0  9998
2 63298  97.6258  72.3907 0010391 253.2624 106.7470 15.19592325 33354
Epoch: 2025-10-23T22:39Z
TLE epoch observation values (Epoch: 2025-10-23T22:39:01.861Z)
Latitude
-0.00008°
Longitude
60.03719°
Altitude
512.224 km
Speed
7.607 km/s
True Right ascension
04h 49m 33s
True Declination
0° 00' 00"
Sunlit
Object was in full shadow at epoch
Visualization orbit readout
Latitude
Unknown
Longitude
Unknown
Altitude
Unknown
Speed
Unknown
Apparent Right ascension
Unknown
Apparent Declination
Unknown
Sunlit
N/A
Visualization observer readout
Local Sidereal Time
10:04:27
Azimuth
Unknown
Elevation
Unknown
Doppler factor
Unknown
Orbital elements
Apogee altitude
511.199 km
Perigee altitude
496.896 km
Semi-major axis
6,882.185 km
Eccentricity
0.00104
Inclination
97.6258°
RAAN
72.3907°
Arg. of periapsis
253.2624°
True anomaly
106.86098°
Mean anomaly
106.747°
Eccentric anomaly
106.80399°
Mean motion
3.80149 °/min
Orbital period
94.7 mins
BSTAR
0.0015169
Loading maneuver chart data...
Computing Atmospheric mass density...
Loading historical data...
Loading historical data...
Loading historical data...
Loading historical data...
Loading historical data...
Loading historical data...
Loading historical data...

Documentation

Showing up to 5 results
|